Terug naar catalogus

COSMOS 2251 DEB

ActiefLEO
NORAD 34637·DEBRIS·🇷🇺 Russia

Gelanceerd Jun 16, 1993 vanaf Plesetsk Cosmodrome

Loading…

Volgende Passages (komende 24 uur)

TLE

VersSource: Space-Track

Epoch: Sep 14, 2026, 13:14 UTC

1 34637U 93036XJ  26257.55149635  .00001653  00000-0  33026-3 0  9996
2 34637  74.0475 294.2440 0051533 292.4479 218.7600 14.61925872925556

Volg COSMOS 2251 DEB in realtime met AllMySat

Download on the App Store